Austin, TX

12:36 PM CST on November 17, 2017 (GMT -0600)
Austin

Weather History for KATT - January, 2014

Change the Weather History Date:

Saturday, January 11, 2014

  Actual Average Record
Temperature  
Mean Temperature 62 °F 51 °F  
Max Temperature 75 °F 61 °F 85 °F (1990)
Min Temperature 48 °F 41 °F 11 °F (1982)
Degree Days  
Heating Degree Days 3 14  
Month to date heating degree days 170 154  
Since 1 July heating degree days 912 766  
Cooling Degree Days 0 0  
Month to date cooling degree days 0 0  
Year to date cooling degree days 0 0  
Growing Degree Days 12 (Base 50)    
Moisture  
Dew Point 37 °F    
Average Humidity 53    
Maximum Humidity 93    
Minimum Humidity 13    
Precipitation  
Precipitation 0.00 in 0.07 in 1.32 in (1920)
Month to date precipitation 0.26 0.81  
Year to date precipitation 0.26 0.81  
Snow  
Snow 0.00 in - - ()
Month to date snowfall 0.0  
Since 1 July snowfall 0.0  
Snow Depth 0.00 in    
Sea Level Pressure  
Sea Level Pressure 30.06 in    
Wind  
Wind Speed 3 mph (NNW)    
Max Wind Speed 12 mph    
Max Gust Speed 19 mph    
Visibility 9 miles    
Events      
T = Trace of Precipitation, MM = Missing Value Source: NWS Daily Summary

Daily Weather History Graph

Daily Weather History Graph

Search for Another Location

Airport or City:

Trip Planner

Search our weather history database for the weather conditions in past years. The results will help you decide how hot, cold, wet, or windy it might be!

Date:

Astronomy

Jan. 11, 2014 Rise Set
Actual Time 7:28 AM CST 5:49 PM CST
Civil Twilight 7:02 AM CST 6:15 PM CST
Nautical Twilight 6:33 AM CST 6:45 PM CST
Astronomical Twilight 6:04 AM CST 7:14 PM CST
Moon 2:31 PM CST (1/11) 3:38 AM CST (1/11)
Length of Visible Light 11h 13m
Length of Day
10h 20m
Waxing Gibbous, 83% of the Moon is Illuminated
Jan 11
Waxing Gibbous
Jan 15
Full
Jan 23
Last Quarter
Jan 30
New
Feb 6
First Quarter

Hourly Weather History & Observations

Time (CST) Temp. Dew Point Humidity Pressure Visibility Wind Dir Wind Speed Gust Speed Precip Events Conditions
12:51 AM 55.9 °F 53.1 °F 90% 29.87 in 7.0 mi Calm Calm - N/A   Clear
1:51 AM 60.1 °F 54.0 °F 80% 29.87 in 10.0 mi Variable 3.5 mph - N/A   Clear
2:51 AM 55.0 °F 51.1 °F 86% 29.88 in 7.0 mi NW 3.5 mph - N/A   Clear
3:51 AM 57.0 °F 52.0 °F 83% 29.91 in 10.0 mi NW 6.9 mph - N/A   Clear
4:51 AM 55.9 °F 50.0 °F 80% 29.94 in 10.0 mi NW 8.1 mph - N/A   Clear
5:51 AM 54.0 °F 45.0 °F 72% 29.99 in 9.0 mi NW 6.9 mph - N/A   Clear
6:51 AM 52.0 °F 43.0 °F 71% 30.01 in 10.0 mi Calm Calm - N/A   Clear
7:51 AM 50.0 °F 41.0 °F 71% 30.05 in 10.0 mi Calm Calm - N/A   Clear
8:51 AM 53.1 °F 41.0 °F 64% 30.10 in 10.0 mi NW 4.6 mph - N/A   Clear
9:51 AM 59.0 °F 42.1 °F 53% 30.14 in 8.0 mi Calm Calm - N/A   Clear
10:41 AM 66.9 °F 34.0 °F 30% 30.16 in 5.0 mi Variable 5.8 mph - N/A   Haze
10:51 AM 66.9 °F 30.9 °F 26% 30.15 in 7.0 mi North 11.5 mph 18.4 mph N/A   Mostly Cloudy
11:00 AM 66.9 °F 30.9 °F 26% 30.16 in 10.0 mi North 10.4 mph 18.4 mph N/A   Scattered Clouds
11:51 AM 70.0 °F 30.0 °F 23% 30.13 in 10.0 mi North 9.2 mph - N/A   Clear
12:51 PM 73.0 °F 30.0 °F 20% 30.10 in 10.0 mi Variable 4.6 mph - N/A   Clear
1:51 PM 73.9 °F 26.1 °F 17% 30.08 in 10.0 mi North 5.8 mph - N/A   Clear
2:51 PM 75.0 °F 24.1 °F 15% 30.08 in 10.0 mi North 6.9 mph - N/A   Clear
3:51 PM 75.0 °F 21.0 °F 13% 30.07 in 10.0 mi Variable 4.6 mph - N/A   Clear
4:51 PM 73.0 °F 19.9 °F 14% 30.08 in 10.0 mi Calm Calm - N/A   Clear
5:51 PM 64.9 °F 32.0 °F 29% 30.09 in 10.0 mi Calm Calm - N/A   Clear
6:51 PM 60.1 °F 32.0 °F 35% 30.10 in 10.0 mi Calm Calm - N/A   Clear
7:51 PM 55.9 °F 35.1 °F 45% 30.13 in 10.0 mi Calm Calm - N/A   Clear
8:51 PM 51.1 °F 37.0 °F 59% 30.14 in 10.0 mi Calm Calm - N/A   Clear
9:51 PM 48.0 °F 37.0 °F 66% 30.15 in 10.0 mi Calm Calm - N/A   Clear
10:51 PM 51.1 °F 35.1 °F 54% 30.14 in 10.0 mi Calm Calm - N/A   Clear
11:51 PM 50.0 °F 34.0 °F 54% 30.12 in 10.0 mi Calm Calm - N/A   Clear